Regional Weather Roundup
Issued by NWS

Home | Current Version | Previous Version | Text Only | Print | Product List | Glossary Off
Versions: 1 2 3 4 5 6 7 8 9 10 11 12 13 14 15 16 17 18 19 20 21 22 23 24 25 26 27 28 29 30 31 32 33 34 35 36 37 38 39 40 41 42 43 44 45 46 47 48 49 50

000
ASUS43 KLMK 230710
RWRKY
KENTUCKY REGIONAL WEATHER ROUNDUP
NATIONAL WEATHER SERVICE LOUISVILLE KY
300 AM EDT WED JUL 23 2014

NOTE "FAIR" INDICATES FEW OR NO CLOUDS BELOW 12,000 FEET
WITH NO SIGNIFICANT WEATHER AND/OR OBSTRUCTIONS TO VISIBILITY.

KYZ001>023-026-027-061>063-070>075-230800-
WESTERN AND SOUTH CENTRAL KENTUCKY

CITY           SKY/WX    TMP DP  RH WIND       PRES   REMARKS
PADUCAH        CLEAR     74  70  87 SW3       30.05R
HENDERSON      CLEAR    N/A N/A N/A CALM      30.03
OWENSBORO      CLEAR     74  71  90 CALM      30.04S
HOPKINSVILLE   CLEAR     75  75 100 SW5       30.06S
BOWLING GREEN  CLEAR     77  70  79 SW5       30.05F
GLASGOW        CLEAR     73  71  95 CALM      30.06F
$$

KYZ024-025-028>034-038-045-046-053-230800-
NORTH CENTRAL KENTUCKY

CITY           SKY/WX    TMP DP  RH WIND       PRES   REMARKS
LOUISVILLE/SDF PTCLDY    80  70  71 W3        30.03S
LOUISVILLE/LOU PTCLDY    74  70  87 CALM      30.04S
FORT KNOX      CLEAR     71  70  98 CALM      30.04S
$$

KYZ035>037-039>044-047>052-055>060-089>105-230800-
NORTHEAST KENTUCKY

CITY           SKY/WX    TMP DP  RH WIND       PRES   REMARKS
LEXINGTON      CLEAR     75  70  84 S6        30.06S
COVINGTON      MOCLDY    72  69  90 W3        30.04S
FRANKFORT      CLEAR     73  70  90 CALM      30.03F
$$

KYZ054-064>069-076>088-106>120-230800-
SOUTHEAST KENTUCKY

CITY           SKY/WX    TMP DP  RH WIND       PRES   REMARKS
JACKSON        PTCLDY    73  70  90 CALM      30.09F
LONDON         PTCLDY    73  70  90 CALM      30.09F
SOMERSET       CLEAR     72  72 100 CALM      30.08F FOG
MIDDLESBORO    CLEAR     68  68  98 CALM      30.11S
MONTICELLO     MOSUNNY   72  71  96 CALM      30.09F FOG
$$




USA.gov is the U.S. government's official web portal to all federal, state and local government web resources and services.